GW6391 Weather Reports


time (UTC)temp
F
wind
direction
speed
knots
gust
knots
rain 1hr
in
rain 24hr
in
rain mn
in
humidity
%
barometer
mb
20260504050517 54 352 7.8 12.2 0.00 0.00 0.00 36 1011.7
20260504045510 55 344 9.6 13.9 0.00 0.00 0.00 35 1011.4
20260504045016 55 9 9.6 16.5 0.00 0.00 0.00 36 1011.3
20260504044533 55 350 10.4 16.5 0.00 0.00 0.00 35 1011.2
20260504044011 55 351 11.3 17.4 0.00 0.00 0.00 35 1011.2
20260504043510 55 9 13.0 17.4 0.00 0.00 0.00 35 1011.0
20260504043035 55 16 10.4 19.1 0.00 0.00 0.00 35 1010.9
20260504042512 55 350 13.0 19.1 0.00 0.00 0.00 35 1010.8
20260504042010 56 19 13.9 20.0 0.00 0.00 0.00 35 1010.6
20260504041540 56 11 14.8 21.7 0.00 0.00 0.00 34 1010.6
20260504041007 56 360 14.8 25.2 0.00 0.00 0.00 34 1010.1
20260504040513 56 9 17.4 25.2 0.00 0.00 0.00 34 1009.8
20260504040100 57 15 17.4 23.5 0.00 0.00 0.00 34 1009.8
20260504035515 58 9 15.6 19.1 0.00 0.00 0.00 35 1009.6
20260504035013 58 352 7.0 10.4 0.00 0.00 0.00 37 1009.4
20260504034535 58 360 4.3 7.8 0.00 0.00 0.00 37 1009.1
20260504034010 58 340 4.3 8.7 0.00 0.00 0.00 36 1008.9
20260504033513 59 348 7.0 10.4 0.00 0.00 0.00 36 1008.8
20260504033036 59 338 7.8 10.4 0.00 0.00 0.00 35 1008.8
20260504032504 59 348 7.0 11.3 0.00 0.00 0.00 35 1008.7
20260504032013 60 352 7.8 11.3 0.00 0.00 0.00 34 1008.7
20260504031536 60 343 7.8 11.3 0.00 0.00 0.00 34 1008.6
20260504031010 60 342 7.8 11.3 0.00 0.00 0.00 34 1008.6
20260504030513 60 342 7.8 13.0 0.00 0.00 0.00 34 1008.7
20260504030038 60 351 7.0 13.0 0.00 0.00 0.00 33 1008.5
20260504025511 61 360 7.8 11.3 0.00 0.00 0.00 33 1008.5
20260504025010 61 346 7.8 11.3 0.00 0.00 0.00 32 1008.5
20260504024526 62 345 7.8 12.2 0.00 0.00 0.00 32 1008.3
20260504024014 62 336 8.7 12.2 0.00 0.00 0.00 32 1008.2
20260504023506 62 336 7.8 13.0 0.00 0.00 0.00 31 1008.2
20260504023057 63 346 8.7 13.0 0.00 0.00 0.00 30 1008.5
20260504022511 64 352 8.7 13.0 0.00 0.00 0.00 30 1008.3
20260504022011 64 336 10.4 14.8 0.00 0.00 0.00 30 1008.2
20260504021539 65 348 10.4 14.8 0.00 0.00 0.00 29 1008.2
20260504021013 65 338 10.4 14.8 0.00 0.00 0.00 28 1008.1
20260504020512 66 360 9.6 13.9 0.00 0.00 0.00 26 1008.0
20260504020032 66 352 9.6 16.5 0.00 0.00 0.00 26 1008.0
20260504015510 67 334 12.2 17.4 0.00 0.00 0.00 25 1008.1
20260504015013 67 338 12.2 18.2 0.00 0.00 0.00 25 1008.0
20260504014532 68 340 13.0 18.2 0.00 0.00 0.00 24 1007.9
20260504014012 69 334 13.0 17.4 0.00 0.00 0.00 24 1007.8
20260504013512 70 331 12.2 17.4 0.00 0.00 0.00 21 1008.0
20260504013039 71 320 10.4 17.4 0.00 0.00 0.00 21 1007.8
20260504012514 72 328 12.2 17.4 0.00 0.00 0.00 21 1007.8
20260504012013 72 346 11.3 18.2 0.00 0.00 0.00 21 1007.7
20260504011541 73 342 13.9 18.2 0.00 0.00 0.00 20 1007.7
20260504011010 73 321 12.2 18.2 0.00 0.00 0.00 21 1007.7
20260504010511 73 315 13.9 18.2 0.00 0.00 0.00 21 1007.8
20260504010035 73 310 12.2 17.4 0.00 0.00 0.00 21 1007.7
20260504005511 73 321 10.4 16.5 0.00 0.00 0.00 20 1007.9
20260504005013 73 296 11.3 19.1 0.00 0.00 0.00 20 1007.8
20260504004515 73 305 13.0 19.1 0.00 0.00 0.00 20 1007.7
20260504004012 74 288 12.2 18.2 0.00 0.00 0.00 20 1007.8
20260504003514 74 302 13.0 20.9 0.00 0.00 0.00 20 1007.9
20260504003055 74 300 14.8 21.7 0.00 0.00 0.00 20 1007.9
20260504002511 74 313 12.2 18.2 0.00 0.00 0.00 20 1008.1
20260504002015 74 292 13.0 20.9 0.00 0.00 0.00 19 1008.1
20260504001539 74 290 14.8 20.0 0.00 0.00 0.00 20 1008.1
20260504001013 74 290 14.8 19.1 0.00 0.00 0.00 20 1008.1
20260504000513 75 292 11.3 20.9 0.00 0.00 0.00 20 1008.3
20260504000035 75 291 13.0 20.9 0.00 0.00 0.00 19 1008.1
20260503235511 75 296 13.0 19.1 0.00 0.00 0.00 20 1008.3
20260503235013 75 293 13.0 25.2 0.00 0.00 0.00 20 1008.4
20260503234535 75 300 16.5 25.2 0.00 0.00 0.00 20 1008.2
20260503234014 75 268 13.0 20.9 0.00 0.00 0.00 19 1008.2
20260503233510 75 302 13.0 20.0 0.00 0.00 0.00 20 1008.3
20260503233040 75 272 13.9 20.0 0.00 0.00 0.00 19 1008.2
20260503232511 75 292 13.9 24.3 0.00 0.00 0.00 19 1008.3
20260503232012 75 271 9.6 25.2 0.00 0.00 0.00 19 1008.2
20260503231533 75 296 12.2 19.1 0.00 0.00 0.00 19 1008.2
20260503231014 75 296 12.2 20.9 0.00 0.00 0.00 19 1008.3
20260503230510 75 315 13.9 20.9 0.00 0.00 0.00 19 1008.3
20260503230035 75 298 14.8 22.6 0.00 0.00 0.00 19 1008.5
20260503225510 76 277 13.9 22.6 0.00 0.00 0.00 19 1008.2
20260503225014 75 296 11.3 21.7 0.00 0.00 0.00 19 1008.6
20260503224533 75 293 13.0 23.5 0.00 0.00 0.00 19 1008.6
20260503224013 75 283 11.3 23.5 0.00 0.00 0.00 19 1008.7
20260503223509 75 296 13.0 18.2 0.00 0.00 0.00 19 1008.7
20260503223034 76 288 13.9 22.6 0.00 0.00 0.00 19 1008.7
20260503222513 75 281 15.6 22.6 0.00 0.00 0.00 18 1008.9
20260503222012 75 301 11.3 22.6 0.00 0.00 0.00 19 1008.8
20260503221539 75 280 13.0 20.9 0.00 0.00 0.00 18 1008.9
20260503221012 75 280 14.8 22.6 0.00 0.00 0.00 18 1008.8
20260503220519 76 284 13.9 22.6 0.00 0.00 0.00 18 1009.0
20260503220035 75 276 13.0 21.7 0.00 0.00 0.00 18 1009.1
20260503215512 75 310 10.4 20.9 0.00 0.00 0.00 19 1009.1
20260503215013 75 281 13.0 20.9 0.00 0.00 0.00 19 1009.1
20260503214535 75 292 12.2 20.9 0.00 0.00 0.00 19 1009.2
20260503214016 75 257 13.0 20.9 0.00 0.00 0.00 18 1009.4
20260503213511 75 305 10.4 18.2 0.00 0.00 0.00 19 1009.5
20260503213035 76 252 12.2 18.2 0.00 0.00 0.00 18 1009.5
20260503212516 75 284 9.6 20.0 0.00 0.00 0.00 19 1009.6
20260503212011 75 288 13.9 20.0 0.00 0.00 0.00 18 1009.5
20260503211531 75 298 13.0 20.0 0.00 0.00 0.00 18 1009.6
20260503211020 74 264 12.2 20.9 0.00 0.00 0.00 19 1009.7
20260503210510 74 287 13.9 20.0 0.00 0.00 0.00 19 1009.9
20260503210034 75 269 13.9 21.7 0.00 0.00 0.00 18 1009.9
20260503205512 75 296 15.6 21.7 0.00 0.00 0.00 18 1009.8
20260503205011 74 271 7.8 21.7 0.00 0.00 0.00 18 1010.0
20260503204534 75 271 13.9 21.7 0.00 0.00 0.00 18 1010.0
20260503204016 74 284 12.2 21.7 0.00 0.00 0.00 18 1010.2
20260503203516 75 297 14.8 21.7 0.00 0.00 0.00 18 1010.1
20260503203035 74 274 12.2 19.1 0.00 0.00 0.00 18 1010.1
20260503202513 75 275 12.2 18.2 0.00 0.00 0.00 18 1010.0
20260503202012 74 269 8.7 20.9 0.00 0.00 0.00 19 1010.2
20260503201535 74 276 11.3 20.9 0.00 0.00 0.00 19 1010.3
20260503201008 74 290 11.3 18.2 0.00 0.00 0.00 19 1010.2
20260503200513 74 263 8.7 21.7 0.00 0.00 0.00 19 1010.6
20260503200035 74 298 13.0 21.7 0.00 0.00 0.00 19 1010.7
20260503195513 74 280 12.2 20.9 0.00 0.00 0.00 18 1010.8
20260503195013 74 268 15.6 20.9 0.00 0.00 0.00 18 1010.6
20260503194535 74 269 12.2 18.2 0.00 0.00 0.00 19 1010.9
20260503194011 73 281 11.3 20.9 0.00 0.00 0.00 19 1010.9
20260503193517 73 267 13.0 20.9 0.00 0.00 0.00 19 1010.8
20260503193040 72 301 7.0 18.2 0.00 0.00 0.00 20 1010.9
20260503192513 74 275 12.2 18.2 0.00 0.00 0.00 19 1011.1
20260503192011 74 246 10.4 19.1 0.00 0.00 0.00 19 1011.1
20260503191533 72 268 13.9 20.9 0.00 0.00 0.00 19 1010.9
20260503191014 72 245 14.8 20.9 0.00 0.00 0.00 19 1011.1
20260503190513 73 278 11.3 17.4 0.00 0.00 0.00 18 1011.2
20260503190042 73 319 13.0 17.4 0.00 0.00 0.00 19 1011.2
20260503185506 73 290 7.0 17.4 0.00 0.00 0.00 18 1011.3
20260503185017 73 267 11.3 19.1 0.00 0.00 0.00 19 1011.3
20260503184534 73 250 13.0 19.1 0.00 0.00 0.00 18 1011.2
20260503184014 72 280 14.8 19.1 0.00 0.00 0.00 17 1011.3
20260503183512 73 244 13.0 18.2 0.00 0.00 0.00 19 1011.3
20260503183045 73 284 9.6 18.2 0.00 0.00 0.00 18 1011.4
20260503182512 73 290 13.0 18.2 0.00 0.00 0.00 18 1011.6
20260503182013 73 308 13.9 18.2 0.00 0.00 0.00 18 1011.6
20260503181520 73 284 11.3 19.1 0.00 0.00 0.00 18 1011.6
20260503181010 73 267 9.6 17.4 0.00 0.00 0.00 18 1011.8
20260503180514 72 277 12.2 19.1 0.00 0.00 0.00 19 1011.9
20260503180041 72 290 9.6 19.1 0.00 0.00 0.00 19 1011.9
20260503175511 72 274 11.3 19.1 0.00 0.00 0.00 18 1012.0
20260503175010 72 313 12.2 17.4 0.00 0.00 0.00 20 1012.0
20260503174541 73 309 11.3 17.4 0.00 0.00 0.00 20 1012.1
20260503174011 72 289 13.0 19.1 0.00 0.00 0.00 20 1012.2
20260503173514 72 308 12.2 15.6 0.00 0.00 0.00 20 1012.3
20260503173036 71 277 9.6 14.8 0.00 0.00 0.00 21 1012.4
20260503172511 71 277 10.4 14.8 0.00 0.00 0.00 21 1012.5
20260503172013 71 279 7.8 13.9 0.00 0.00 0.00 21 1012.5
20260503171525 70 270 8.7 14.8 0.00 0.00 0.00 22 1012.4
20260503171014 70 267 10.4 13.9 0.00 0.00 0.00 21 1012.5
20260503170514 70 257 7.8 12.2 0.00 0.00 0.00 22 1012.4
20260503150514 62 284 7.8 11.3 0.00 0.00 0.00 40 1013.4
20260503131014 44 136 1.7 4.3 0.00 0.00 0.00 79 1013.5
20260503130518 44 126 2.6 5.2 0.00 0.00 0.00 78 1013.6
20260503110519 38 134 4.3 6.1 0.00 0.00 0.00 78 1014.7
20260503090512 39 229 0.0 1.7 0.00 0.00 0.00 77 1015.3
20260503081530 43 233 3.5 5.2 0.00 0.00 0.00 70 1015.7
20260503081011 43 260 4.3 6.1 0.00 0.00 0.00 70 1015.8
20260503080511 43 251 3.5 7.0 0.00 0.00 0.00 69 1015.8
20260503072512 43 269 1.7 3.5 0.00 0.00 0.00 62 1016.0
20260503072011 43 246 1.7 2.6 0.00 0.00 0.00 65 1016.0
20260503071534 43 246 0.9 4.3 0.00 0.00 0.00 64 1016.1
20260503071018 42 246 3.5 4.3 0.00 0.00 0.00 66 1016.1
20260503070512 42 246 2.6 3.5 0.00 0.00 0.00 66 1016.2
20260503055011 42 153 0.9 2.6 0.00 0.00 0.00 60 1016.4
20260503054503 43 153 0.9 2.6 0.00 0.00 0.00 59 1016.3
20260503054011 43 153 1.7 2.6 0.00 0.00 0.00 60 1016.3
20260503053512 43 153 0.9 1.7 0.00 0.00 0.00 59 1016.3
20260503053028 43 153 0.9 2.6 0.00 0.00 0.00 59 1016.2
20260503052511 44 153 1.7 2.6 0.00 0.00 0.00 57 1016.2